Time,TemperatureF,DewpointF,PressureIn,WindDirection,WindDirectionDegrees,WindSpeedMPH,WindSpeedGustMPH,Humidity,HourlyPrecipIn,Conditions,Clouds,dailyrainin,SoftwareType,DateUTC
2013-01-31 00:00:00,35.0,30.0,29.44,WSW,248,3.5,6.4,82,0.00,,,0.00,WUHU216HW,2013-01-31 05:00:00,
2013-01-31 00:01:00,34.8,29.8,29.45,West,270,2.9,6.4,82,0.00,,,0.00,WUHU216HW,2013-01-31 05:01:00,
2013-01-31 00:06:00,34.7,29.4,29.45,WSW,248,3.8,5.1,81,0.00,,,0.00,WUHU216HW,2013-01-31 05:06:00,
2013-01-31 00:11:00,34.7,29.4,29.46,West,270,2.4,6.2,81,0.00,,,0.00,WUHU216HW,2013-01-31 05:11:00,
2013-01-31 00:16:00,34.5,29.2,29.46,WNW,293,3.3,7.3,81,0.00,,,0.00,WUHU216HW,2013-01-31 05:16:00,
2013-01-31 00:21:00,34.3,29.0,29.46,WSW,248,3.5,8.2,81,0.00,,,0.00,WUHU216HW,2013-01-31 05:21:00,
2013-01-31 00:26:00,34.1,28.8,29.47,SSW,203,2.9,8.2,81,0.00,,,0.00,WUHU216HW,2013-01-31 05:26:00,
2013-01-31 00:31:00,33.9,28.4,29.47,WSW,248,2.9,6.9,80,0.00,,,0.00,WUHU216HW,2013-01-31 05:31:00,
2013-01-31 00:36:00,33.8,27.8,29.47,WSW,248,5.8,9.3,79,0.00,,,0.00,WUHU216HW,2013-01-31 05:36:00,
2013-01-31 00:41:00,33.8,27.5,29.48,SW,225,8.0,9.3,78,0.00,,,0.00,WUHU216HW,2013-01-31 05:41:00,
2013-01-31 00:46:00,33.6,26.7,29.49,West,270,3.8,8.0,76,0.00,,,0.00,WUHU216HW,2013-01-31 05:46:00,
2013-01-31 00:51:00,33.4,26.2,29.48,SW,225,6.2,6.4,75,0.00,,,0.00,WUHU216HW,2013-01-31 05:51:00,
2013-01-31 00:56:00,33.4,26.2,29.48,South,180,5.8,6.4,75,0.00,,,0.00,WUHU216HW,2013-01-31 05:56:00,
2013-01-31 01:01:00,33.4,25.9,29.50,SW,225,4.0,7.1,74,0.00,,,0.00,WUHU216HW,2013-01-31 06:01:00,
2013-01-31 01:06:00,33.4,25.6,29.50,West,270,7.3,7.3,73,0.00,,,0.00,WUHU216HW,2013-01-31 06:06:00,
2013-01-31 01:11:00,33.2,25.1,29.50,SW,225,0.0,7.3,72,0.00,,,0.00,WUHU216HW,2013-01-31 06:11:00,
2013-01-31 01:16:00,33.2,25.1,29.51,SW,225,3.1,10.7,72,0.00,,,0.00,WUHU216HW,2013-01-31 06:16:00,
2013-01-31 01:21:00,33.0,24.8,29.51,WSW,248,4.2,10.7,71,0.00,,,0.00,WUHU216HW,2013-01-31 06:21:00,
2013-01-31 01:26:00,33.0,24.6,29.52,WSW,248,0.0,8.7,71,0.00,,,0.00,WUHU216HW,2013-01-31 06:26:00,
2013-01-31 01:31:00,32.9,24.1,29.52,WSW,248,3.8,8.7,70,0.00,,,0.00,WUHU216HW,2013-01-31 06:31:00,
2013-01-31 01:36:00,32.9,24.1,29.52,WSW,248,1.1,6.4,70,0.00,,,0.00,WUHU216HW,2013-01-31 06:36:00,
2013-01-31 01:41:00,32.9,24.1,29.52,WSW,248,4.6,5.5,70,0.00,,,0.00,WUHU216HW,2013-01-31 06:41:00,
2013-01-31 01:46:00,32.7,24.0,29.53,West,270,4.2,5.1,70,0.00,,,0.00,WUHU216HW,2013-01-31 06:46:00,
2013-01-31 01:51:00,32.7,23.6,29.53,WSW,248,6.9,6.9,69,0.00,,,0.00,WUHU216HW,2013-01-31 06:51:00,
2013-01-31 01:56:00,32.7,23.6,29.54,SSW,203,2.2,6.9,69,0.00,,,0.00,WUHU216HW,2013-01-31 06:56:00,
2013-01-31 02:01:00,32.7,23.6,29.54,SSW,203,4.0,8.9,69,0.00,,,0.00,WUHU216HW,2013-01-31 07:01:00,
2013-01-31 02:06:00,32.7,23.6,29.55,WNW,293,4.0,8.9,69,0.00,,,0.00,WUHU216HW,2013-01-31 07:06:00,
2013-01-31 02:11:00,32.5,23.4,29.55,SSW,203,0.0,4.0,69,0.00,,,0.00,WUHU216HW,2013-01-31 07:11:00,
2013-01-31 02:16:00,32.5,23.4,29.55,West,270,4.0,12.3,68,0.00,,,0.00,WUHU216HW,2013-01-31 07:16:00,
2013-01-31 02:21:00,32.3,22.9,29.56,WSW,248,5.3,12.3,68,0.00,,,0.00,WUHU216HW,2013-01-31 07:21:00,
2013-01-31 02:26:00,32.3,22.9,29.56,WSW,248,3.5,5.5,68,0.00,,,0.00,WUHU216HW,2013-01-31 07:26:00,
2013-01-31 02:31:00,32.1,23.1,29.56,SW,225,9.1,9.1,69,0.00,,,0.00,WUHU216HW,2013-01-31 07:31:00,
2013-01-31 02:36:00,31.8,22.8,29.57,South,180,5.1,10.9,69,0.00,,,0.00,WUHU216HW,2013-01-31 07:36:00,
2013-01-31 02:41:00,31.6,22.6,29.58,WSW,248,7.6,10.9,69,0.00,,,0.00,WUHU216HW,2013-01-31 07:41:00,
2013-01-31 02:46:00,31.4,22.4,29.58,SW,225,8.5,9.8,69,0.00,,,0.00,WUHU216HW,2013-01-31 07:46:00,
2013-01-31 02:51:00,31.2,22.2,29.58,West,270,6.0,9.8,69,0.00,,,0.00,WUHU216HW,2013-01-31 07:51:00,
2013-01-31 02:56:00,30.9,21.9,29.59,WSW,248,7.3,9.1,69,0.00,,,0.00,WUHU216HW,2013-01-31 07:56:00,
2013-01-31 03:01:00,30.9,21.9,29.58,SW,225,6.9,7.3,69,0.00,,,0.00,WUHU216HW,2013-01-31 08:01:00,
2013-01-31 03:06:00,30.7,21.7,29.58,WNW,293,6.4,8.5,69,0.00,,,0.00,WUHU216HW,2013-01-31 08:06:00,
2013-01-31 03:11:00,30.7,21.3,29.59,SSW,203,2.0,8.9,68,0.00,,,0.00,WUHU216HW,2013-01-31 08:11:00,
2013-01-31 03:16:00,30.5,20.8,29.60,WSW,248,6.7,14.5,67,0.00,,,0.00,WUHU216HW,2013-01-31 08:16:00,
2013-01-31 03:21:00,30.5,20.8,29.60,West,270,5.3,14.5,67,0.00,,,0.00,WUHU216HW,2013-01-31 08:21:00,
2013-01-31 03:26:00,30.5,20.4,29.60,SSW,203,12.7,12.7,66,0.00,,,0.00,WUHU216HW,2013-01-31 08:26:00,
2013-01-31 03:31:00,30.3,20.3,29.60,South,180,3.8,12.7,66,0.00,,,0.00,WUHU216HW,2013-01-31 08:31:00,
2013-01-31 03:36:00,30.3,19.9,29.60,West,270,6.2,10.5,65,0.00,,,0.00,WUHU216HW,2013-01-31 08:36:00,
2013-01-31 03:41:00,30.0,19.5,29.60,West,270,4.4,10.5,65,0.00,,,0.00,WUHU216HW,2013-01-31 08:41:00,
2013-01-31 03:46:00,29.8,19.0,29.60,WSW,248,5.8,10.9,64,0.00,,,0.00,WUHU216HW,2013-01-31 08:46:00,
2013-01-31 03:51:00,29.8,19.0,29.60,West,270,3.5,10.9,64,0.00,,,0.00,WUHU216HW,2013-01-31 08:51:00,
2013-01-31 03:56:00,29.6,18.9,29.60,West,270,15.8,15.8,64,0.00,,,0.00,WUHU216HW,2013-01-31 08:56:00,
2013-01-31 04:01:00,29.6,18.9,29.61,SSW,203,5.8,15.8,64,0.00,,,0.00,WUHU216HW,2013-01-31 09:01:00,
2013-01-31 04:06:00,29.6,19.2,29.61,West,270,2.2,9.1,65,0.00,,,0.00,WUHU216HW,2013-01-31 09:06:00,
2013-01-31 04:11:00,29.4,19.1,29.61,West,270,12.5,12.5,65,0.00,,,0.00,WUHU216HW,2013-01-31 09:11:00,
2013-01-31 04:16:00,29.3,18.9,29.62,WSW,248,5.3,12.5,65,0.00,,,0.00,WUHU216HW,2013-01-31 09:16:00,
2013-01-31 04:21:00,28.9,18.9,29.63,SW,225,2.4,8.9,66,0.00,,,0.00,WUHU216HW,2013-01-31 09:21:00,
2013-01-31 04:26:00,28.7,19.1,29.63,WNW,293,0.0,11.4,67,0.00,,,0.00,WUHU216HW,2013-01-31 09:26:00,
2013-01-31 04:31:00,28.7,19.1,29.63,WNW,293,4.2,11.4,67,0.00,,,0.00,WUHU216HW,2013-01-31 09:31:00,
2013-01-31 04:36:00,28.5,19.0,29.63,SSW,203,12.5,12.5,67,0.00,,,0.00,WUHU216HW,2013-01-31 09:36:00,
2013-01-31 04:41:00,28.5,19.0,29.63,WSW,248,9.8,12.5,67,0.00,,,0.00,WUHU216HW,2013-01-31 09:41:00,
2013-01-31 04:46:00,28.5,19.0,29.63,SW,225,3.5,11.8,67,0.00,,,0.00,WUHU216HW,2013-01-31 09:46:00,
2013-01-31 04:51:00,28.5,19.0,29.64,WSW,248,4.2,10.5,67,0.00,,,0.00,WUHU216HW,2013-01-31 09:51:00,
2013-01-31 04:56:00,28.4,18.5,29.64,WNW,293,8.0,10.5,66,0.00,,,0.00,WUHU216HW,2013-01-31 09:56:00,
2013-01-31 05:01:00,28.2,18.6,29.65,WSW,248,4.0,8.0,67,0.00,,,0.00,WUHU216HW,2013-01-31 10:01:00,
2013-01-31 05:06:00,28.0,18.5,29.65,WSW,248,12.9,12.9,67,0.00,,,0.00,WUHU216HW,2013-01-31 10:06:00,
2013-01-31 05:11:00,27.8,18.3,29.65,SW,225,4.6,12.9,67,0.00,,,0.00,WUHU216HW,2013-01-31 10:11:00,
2013-01-31 05:16:00,27.8,18.3,29.66,SW,225,2.0,9.1,67,0.00,,,0.00,WUHU216HW,2013-01-31 10:16:00,
2013-01-31 05:21:00,27.6,18.1,29.67,WSW,248,1.3,9.1,67,0.00,,,0.00,WUHU216HW,2013-01-31 10:21:00,
2013-01-31 05:26:00,27.3,17.7,29.68,WSW,248,7.6,9.8,67,0.00,,,0.00,WUHU216HW,2013-01-31 10:26:00,
2013-01-31 05:31:00,26.9,17.4,29.68,WSW,248,13.4,13.4,67,0.00,,,0.00,WUHU216HW,2013-01-31 10:31:00,
2013-01-31 05:36:00,26.7,17.2,29.68,WSW,248,6.4,13.4,67,0.00,,,0.00,WUHU216HW,2013-01-31 10:36:00,
2013-01-31 05:41:00,26.7,16.8,29.68,WSW,248,6.9,17.0,66,0.00,,,0.00,WUHU216HW,2013-01-31 10:41:00,
2013-01-31 05:46:00,26.4,15.8,29.68,WSW,248,4.9,17.0,64,0.00,,,0.00,WUHU216HW,2013-01-31 10:46:00,
2013-01-31 05:51:00,26.2,15.2,29.68,West,270,7.3,12.7,63,0.00,,,0.00,WUHU216HW,2013-01-31 10:51:00,
2013-01-31 05:56:00,26.2,14.9,29.68,SW,225,6.9,9.3,62,0.00,,,0.00,WUHU216HW,2013-01-31 10:56:00,
2013-01-31 06:01:00,26.0,14.7,29.68,SW,225,6.4,9.3,62,0.00,,,0.00,WUHU216HW,2013-01-31 11:01:00,
2013-01-31 06:06:00,26.0,14.7,29.68,SSW,203,4.2,7.3,62,0.00,,,0.00,WUHU216HW,2013-01-31 11:06:00,
2013-01-31 06:11:00,26.0,15.1,29.69,WSW,248,3.3,10.5,63,0.00,,,0.00,WUHU216HW,2013-01-31 11:11:00,
2013-01-31 06:16:00,25.8,14.9,29.69,SW,225,4.4,11.1,63,0.00,,,0.00,WUHU216HW,2013-01-31 11:16:00,
2013-01-31 06:21:00,25.7,14.7,29.69,WSW,248,7.1,11.1,63,0.00,,,0.00,WUHU216HW,2013-01-31 11:21:00,
2013-01-31 06:26:00,25.7,14.7,29.70,SW,225,10.5,10.5,63,0.00,,,0.00,WUHU216HW,2013-01-31 11:26:00,
2013-01-31 06:31:00,25.5,14.6,29.71,West,270,4.2,10.5,63,0.00,,,0.00,WUHU216HW,2013-01-31 11:31:00,
2013-01-31 06:36:00,25.3,14.0,29.71,South,180,3.8,11.4,62,0.00,,,0.00,WUHU216HW,2013-01-31 11:36:00,
2013-01-31 06:41:00,25.1,13.9,29.72,West,270,6.9,11.4,62,0.00,,,0.00,WUHU216HW,2013-01-31 11:41:00,
2013-01-31 06:46:00,24.9,13.7,29.72,SSW,203,9.3,9.3,62,0.00,,,0.00,WUHU216HW,2013-01-31 11:46:00,
2013-01-31 06:51:00,24.2,13.4,29.73,SW,225,5.8,10.5,63,0.00,,,0.00,WUHU216HW,2013-01-31 11:51:00,
2013-01-31 06:56:00,23.7,13.2,29.73,West,270,2.4,10.5,64,0.00,,,0.00,WUHU216HW,2013-01-31 11:56:00,
2013-01-31 07:01:00,23.3,13.2,29.74,West,270,10.0,10.0,65,0.00,,,0.00,WUHU216HW,2013-01-31 12:01:00,
2013-01-31 07:06:00,23.1,13.4,29.74,NNW,338,10.2,10.2,66,0.00,,,0.00,WUHU216HW,2013-01-31 12:06:00,
2013-01-31 07:11:00,23.1,13.4,29.74,West,270,2.9,10.2,66,0.00,,,0.00,WUHU216HW,2013-01-31 12:11:00,
2013-01-31 07:16:00,23.3,13.6,29.75,WNW,293,3.1,8.9,66,0.00,,,0.00,WUHU216HW,2013-01-31 12:16:00,
2013-01-31 07:21:00,23.3,13.6,29.75,West,270,0.0,8.9,66,0.00,,,0.00,WUHU216HW,2013-01-31 12:21:00,
2013-01-31 07:26:00,23.3,13.2,29.75,West,270,2.6,10.5,65,0.00,,,0.00,WUHU216HW,2013-01-31 12:26:00,
2013-01-31 07:31:00,23.3,13.2,29.75,West,270,3.5,10.5,65,0.00,,,0.00,WUHU216HW,2013-01-31 12:31:00,
2013-01-31 07:36:00,23.3,12.9,29.75,WSW,248,2.2,6.2,64,0.00,,,0.00,WUHU216HW,2013-01-31 12:36:00,
2013-01-31 07:41:00,23.3,12.9,29.75,SSW,203,0.0,6.2,64,0.00,,,0.00,WUHU216HW,2013-01-31 12:41:00,
2013-01-31 07:46:00,23.3,12.5,29.76,SW,225,4.4,5.3,63,0.00,,,0.00,WUHU216HW,2013-01-31 12:46:00,
2013-01-31 07:51:00,23.3,12.5,29.76,South,180,8.5,8.5,63,0.00,,,0.00,WUHU216HW,2013-01-31 12:51:00,
2013-01-31 07:56:00,23.3,12.5,29.76,SSW,203,4.9,8.5,63,0.00,,,0.00,WUHU216HW,2013-01-31 12:56:00,
2013-01-31 08:01:00,23.3,12.5,29.76,SSW,203,0.0,4.9,63,0.00,,,0.00,WUHU216HW,2013-01-31 13:01:00,
2013-01-31 08:06:00,23.3,12.5,29.77,West,270,6.0,6.0,63,0.00,,,0.00,WUHU216HW,2013-01-31 13:06:00,
2013-01-31 08:11:00,23.3,12.5,29.78,WSW,248,4.6,6.9,63,0.00,,,0.00,WUHU216HW,2013-01-31 13:11:00,
2013-01-31 08:16:00,22.8,12.3,29.78,WNW,293,7.3,7.3,64,0.00,,,0.00,WUHU216HW,2013-01-31 13:16:00,
2013-01-31 08:21:00,22.6,12.5,29.77,WSW,248,6.9,7.3,65,0.00,,,0.00,WUHU216HW,2013-01-31 13:21:00,
2013-01-31 08:26:00,22.6,12.7,29.78,West,270,4.2,10.9,65,0.00,,,0.00,WUHU216HW,2013-01-31 13:26:00,
2013-01-31 08:31:00,22.8,12.5,29.78,West,270,5.5,10.9,64,0.00,,,0.00,WUHU216HW,2013-01-31 13:31:00,
2013-01-31 08:36:00,23.0,12.0,29.78,West,270,7.6,9.3,62,0.00,,,0.00,WUHU216HW,2013-01-31 13:36:00,
2013-01-31 08:41:00,22.8,11.8,29.79,WSW,248,4.0,9.3,62,0.00,,,0.00,WUHU216HW,2013-01-31 13:41:00,
2013-01-31 08:46:00,22.6,11.4,29.79,WSW,248,5.5,10.9,62,0.00,,,0.00,WUHU216HW,2013-01-31 13:46:00,
2013-01-31 08:50:00,22.8,11.3,29.79,WSW,248,12.7,12.7,61,0.00,,,0.00,WUHU216HW,2013-01-31 13:50:00,
2013-01-31 08:55:00,22.8,10.9,29.79,WSW,248,5.1,12.7,60,0.00,,,0.00,WUHU216HW,2013-01-31 13:55:00,
2013-01-31 09:00:00,22.8,10.9,29.80,SW,225,1.7,8.0,60,0.00,,,0.00,WUHU216HW,2013-01-31 14:00:00,
2013-01-31 09:05:00,23.1,10.8,29.80,WSW,248,1.1,7.6,59,0.00,,,0.00,WUHU216HW,2013-01-31 14:05:00,
2013-01-31 09:10:00,23.1,10.4,29.79,NNW,338,5.5,7.6,58,0.00,,,0.00,WUHU216HW,2013-01-31 14:10:00,
2013-01-31 09:15:00,23.1,10.0,29.80,West,270,3.8,7.6,57,0.00,,,0.00,WUHU216HW,2013-01-31 14:15:00,
2013-01-31 09:20:00,23.3,9.8,29.80,West,270,10.5,10.9,56,0.00,,,0.00,WUHU216HW,2013-01-31 14:20:00,
2013-01-31 09:25:00,23.3,9.4,29.80,WSW,248,3.8,10.9,55,0.00,,,0.00,WUHU216HW,2013-01-31 14:25:00,
2013-01-31 09:30:00,23.3,9.8,29.80,WSW,248,2.0,11.4,56,0.00,,,0.00,WUHU216HW,2013-01-31 14:30:00,
2013-01-31 09:35:00,23.3,9.8,29.81,West,270,0.0,11.4,56,0.00,,,0.00,WUHU216HW,2013-01-31 14:35:00,
2013-01-31 09:40:00,23.3,10.2,29.81,WSW,248,2.4,8.5,57,0.00,,,0.00,WUHU216HW,2013-01-31 14:40:00,
2013-01-31 09:45:00,23.5,10.4,29.81,SW,225,0.0,6.0,57,0.00,,,0.00,WUHU216HW,2013-01-31 14:45:00,
2013-01-31 09:50:00,23.7,11.0,29.81,West,270,2.9,11.4,58,0.00,,,0.00,WUHU216HW,2013-01-31 14:50:00,
2013-01-31 09:55:00,23.7,11.1,29.81,SW,225,6.9,11.4,58,0.00,,,0.00,WUHU216HW,2013-01-31 14:55:00,
2013-01-31 10:00:00,23.7,11.4,29.82,WSW,248,1.5,9.1,59,0.00,,,0.00,WUHU216HW,2013-01-31 15:00:00,
2013-01-31 10:05:00,23.7,11.8,29.82,WNW,293,1.5,7.3,60,0.00,,,0.00,WUHU216HW,2013-01-31 15:05:00,
2013-01-31 10:10:00,23.5,11.8,29.82,WSW,248,3.8,4.6,60,0.00,,,0.00,WUHU216HW,2013-01-31 15:10:00,
2013-01-31 10:15:00,23.3,11.8,29.83,WNW,293,6.0,10.5,61,0.00,,,0.00,WUHU216HW,2013-01-31 15:15:00,
2013-01-31 10:20:00,22.8,11.6,29.83,WSW,248,4.6,10.5,62,0.00,,,0.00,WUHU216HW,2013-01-31 15:20:00,
2013-01-31 10:25:00,22.4,11.6,29.83,WSW,248,2.4,7.8,63,0.00,,,0.00,WUHU216HW,2013-01-31 15:25:00,
2013-01-31 10:30:00,22.4,12.3,29.83,WSW,248,4.4,7.8,65,0.00,,,0.00,WUHU216HW,2013-01-31 15:30:00,
2013-01-31 10:35:00,22.6,12.9,29.84,WNW,293,2.0,8.5,66,0.00,,,0.00,WUHU216HW,2013-01-31 15:35:00,
2013-01-31 10:40:00,22.8,13.4,29.84,West,270,0.0,8.5,67,0.00,,,0.00,WUHU216HW,2013-01-31 15:40:00,
2013-01-31 10:45:00,22.6,13.2,29.84,West,270,0.0,5.8,67,0.00,,,0.00,WUHU216HW,2013-01-31 15:45:00,
2013-01-31 10:50:00,22.4,13.1,29.84,West,270,8.2,8.2,67,0.00,,,0.00,WUHU216HW,2013-01-31 15:50:00,
2013-01-31 10:55:00,22.2,12.9,29.85,WSW,248,2.4,8.2,67,0.00,,,0.00,WUHU216HW,2013-01-31 15:55:00,
2013-01-31 11:00:00,22.2,12.5,29.85,West,270,0.8,6.2,66,0.00,,,0.00,WUHU216HW,2013-01-31 16:00:00,
2013-01-31 11:05:00,22.4,12.7,29.85,South,180,4.4,5.1,66,0.00,,,0.00,WUHU216HW,2013-01-31 16:05:00,
2013-01-31 11:10:00,22.4,12.7,29.84,WSW,248,4.6,8.7,66,0.00,,,0.00,WUHU216HW,2013-01-31 16:10:00,
2013-01-31 11:15:00,22.4,12.3,29.85,WNW,293,0.4,8.7,65,0.00,,,0.00,WUHU216HW,2013-01-31 16:15:00,
2013-01-31 11:20:00,22.2,12.2,29.86,WSW,248,7.8,7.8,65,0.00,,,0.00,WUHU216HW,2013-01-31 16:20:00,
2013-01-31 11:25:00,21.9,12.2,29.86,NNE,23,5.3,10.0,66,0.00,,,0.00,WUHU216HW,2013-01-31 16:25:00,
2013-01-31 11:30:00,21.5,11.8,29.86,South,180,3.5,10.0,66,0.00,,,0.00,WUHU216HW,2013-01-31 16:30:00,
2013-01-31 11:35:00,21.3,11.7,29.85,West,270,2.4,9.1,66,0.00,,,0.00,WUHU216HW,2013-01-31 16:35:00,
2013-01-31 11:40:00,21.7,11.7,29.85,WNW,293,4.0,12.5,65,0.00,,,0.00,WUHU216HW,2013-01-31 16:40:00,
2013-01-31 11:45:00,22.2,11.5,29.85,West,270,9.1,12.5,63,0.00,,,0.00,WUHU216HW,2013-01-31 16:45:00,
2013-01-31 11:50:00,22.6,10.7,29.85,SW,225,8.7,9.1,60,0.00,,,0.00,WUHU216HW,2013-01-31 16:50:00,
2013-01-31 11:55:00,22.8,9.7,29.85,WNW,293,5.3,12.9,57,0.00,,,0.00,WUHU216HW,2013-01-31 16:55:00,
2013-01-31 12:00:00,22.8,8.7,29.85,WSW,248,7.1,12.9,54,0.00,,,0.00,WUHU216HW,2013-01-31 17:00:00,
2013-01-31 12:05:00,23.1,8.9,29.86,SSW,203,6.2,10.7,54,0.00,,,0.00,WUHU216HW,2013-01-31 17:05:00,
2013-01-31 12:10:00,23.1,9.0,29.86,WSW,248,9.8,9.8,54,0.00,,,0.00,WUHU216HW,2013-01-31 17:10:00,
2013-01-31 12:15:00,23.3,8.6,29.86,West,270,1.5,9.8,53,0.00,,,0.00,WUHU216HW,2013-01-31 17:15:00,
2013-01-31 12:20:00,23.3,8.6,29.85,West,270,4.6,8.5,53,0.00,,,0.00,WUHU216HW,2013-01-31 17:20:00,
2013-01-31 12:25:00,23.5,8.8,29.85,West,270,5.3,8.5,53,0.00,,,0.00,WUHU216HW,2013-01-31 17:25:00,
2013-01-31 12:30:00,24.2,9.1,29.85,SW,225,7.1,7.6,52,0.00,,,0.00,WUHU216HW,2013-01-31 17:30:00,
2013-01-31 12:35:00,24.2,8.6,29.85,WSW,248,6.7,8.2,51,0.00,,,0.00,WUHU216HW,2013-01-31 17:35:00,
2013-01-31 12:40:00,24.6,8.6,29.85,SW,225,0.0,12.0,50,0.00,,,0.00,WUHU216HW,2013-01-31 17:40:00,
2013-01-31 12:45:00,25.1,9.1,29.85,SW,225,5.8,12.0,50,0.00,,,0.00,WUHU216HW,2013-01-31 17:45:00,
2013-01-31 12:50:00,25.5,8.9,29.85,NW,315,12.7,12.7,49,0.00,,,0.00,WUHU216HW,2013-01-31 17:50:00,
2013-01-31 12:55:00,25.1,8.1,29.85,WSW,248,4.2,15.4,48,0.00,,,0.00,WUHU216HW,2013-01-31 17:55:00,
2013-01-31 13:00:00,24.9,6.9,29.85,NNW,338,5.3,15.4,46,0.00,,,0.00,WUHU216HW,2013-01-31 18:00:00,
2013-01-31 13:05:00,24.6,6.8,29.84,North,0,0.0,10.9,46,0.00,,,0.00,WUHU216HW,2013-01-31 18:05:00,
2013-01-31 13:09:00,24.9,7.4,29.83,WNW,293,4.0,10.5,47,0.00,,,0.00,WUHU216HW,2013-01-31 18:09:00,
2013-01-31 13:15:00,25.1,7.6,29.84,SW,225,0.0,10.5,47,0.00,,,0.00,WUHU216HW,2013-01-31 18:15:00,
2013-01-31 13:21:00,25.1,7.6,29.84,South,180,5.3,11.1,47,0.00,,,0.00,WUHU216HW,2013-01-31 18:21:00,
2013-01-31 13:28:00,25.1,8.1,29.84,SW,225,0.0,11.1,48,0.00,,,0.00,WUHU216HW,2013-01-31 18:28:00,
2013-01-31 13:34:00,25.1,8.1,29.84,WSW,248,3.5,8.0,48,0.00,,,0.00,WUHU216HW,2013-01-31 18:34:00,
2013-01-31 13:40:00,25.1,8.1,29.84,SW,225,6.0,6.0,48,0.00,,,0.00,WUHU216HW,2013-01-31 18:40:00,
2013-01-31 13:46:00,24.9,7.9,29.84,West,270,4.9,9.1,48,0.00,,,0.00,WUHU216HW,2013-01-31 18:46:00,
2013-01-31 13:53:00,24.4,7.9,29.84,WNW,293,1.7,8.0,49,0.00,,,0.00,WUHU216HW,2013-01-31 18:53:00,
2013-01-31 13:59:00,24.2,8.6,29.84,SW,225,0.0,8.0,51,0.00,,,0.00,WUHU216HW,2013-01-31 18:59:00,
2013-01-31 14:05:00,24.4,10.0,29.84,West,270,0.0,4.4,54,0.00,,,0.00,WUHU216HW,2013-01-31 19:05:00,
2013-01-31 14:11:00,24.4,10.5,29.84,SW,225,2.4,5.1,55,0.00,,,0.00,WUHU216HW,2013-01-31 19:11:00,
2013-01-31 14:17:00,24.4,10.5,29.84,West,270,2.9,8.0,55,0.00,,,0.00,WUHU216HW,2013-01-31 19:17:00,
2013-01-31 14:24:00,24.4,10.5,29.84,SW,225,3.8,8.9,55,0.00,,,0.00,WUHU216HW,2013-01-31 19:24:00,
2013-01-31 14:30:00,24.9,10.5,29.84,SW,225,2.6,8.9,54,0.00,,,0.00,WUHU216HW,2013-01-31 19:30:00,
2013-01-31 14:36:00,25.1,10.3,29.84,West,270,2.0,8.9,53,0.00,,,0.00,WUHU216HW,2013-01-31 19:36:00,
2013-01-31 14:42:00,25.5,10.6,29.84,WSW,248,2.6,8.9,53,0.00,,,0.00,WUHU216HW,2013-01-31 19:42:00,
2013-01-31 14:49:00,26.2,10.7,29.84,SW,225,6.0,6.0,52,0.00,,,0.00,WUHU216HW,2013-01-31 19:49:00,
2013-01-31 14:55:00,26.4,10.2,29.84,South,180,5.5,10.7,50,0.00,,,0.00,WUHU216HW,2013-01-31 19:55:00,
2013-01-31 15:01:00,26.7,10.0,29.84,SW,225,2.2,16.5,49,0.00,,,0.00,WUHU216HW,2013-01-31 20:01:00,
2013-01-31 15:07:00,26.7,9.5,29.84,South,180,8.9,16.5,48,0.00,,,0.00,WUHU216HW,2013-01-31 20:07:00,
2013-01-31 15:13:00,26.6,8.9,29.84,SSW,203,9.1,9.1,47,0.00,,,0.00,WUHU216HW,2013-01-31 20:13:00,
2013-01-31 15:20:00,26.4,8.7,29.84,SW,225,7.1,9.1,47,0.00,,,0.00,WUHU216HW,2013-01-31 20:20:00,
2013-01-31 15:26:00,26.4,8.7,29.85,South,180,8.7,10.0,47,0.00,,,0.00,WUHU216HW,2013-01-31 20:26:00,
2013-01-31 15:32:00,26.4,8.7,29.85,SW,225,8.9,10.0,47,0.00,,,0.00,WUHU216HW,2013-01-31 20:32:00,
2013-01-31 15:38:00,26.7,9.5,29.84,West,270,0.0,10.5,48,0.00,,,0.00,WUHU216HW,2013-01-31 20:38:00,
2013-01-31 15:45:00,27.5,10.3,29.84,WSW,248,6.0,8.7,48,0.00,,,0.00,WUHU216HW,2013-01-31 20:45:00,
2013-01-31 15:51:00,27.6,9.4,29.84,SW,225,2.6,8.7,46,0.00,,,0.00,WUHU216HW,2013-01-31 20:51:00,
2013-01-31 15:57:00,27.3,8.6,29.84,WSW,248,6.9,8.9,45,0.00,,,0.00,WUHU216HW,2013-01-31 20:57:00,
2013-01-31 16:03:00,26.9,7.3,29.85,WSW,248,1.5,11.4,43,0.00,,,0.00,WUHU216HW,2013-01-31 21:03:00,
2013-01-31 16:09:00,26.9,7.8,29.85,West,270,0.0,12.0,44,0.00,,,0.00,WUHU216HW,2013-01-31 21:09:00,
2013-01-31 16:16:00,27.8,9.1,29.85,SSW,203,6.4,6.4,45,0.00,,,0.00,WUHU216HW,2013-01-31 21:16:00,
2013-01-31 16:22:00,28.0,8.8,29.86,WNW,293,2.2,6.4,44,0.00,,,0.00,WUHU216HW,2013-01-31 21:22:00,
2013-01-31 16:28:00,28.7,8.9,29.86,West,270,1.5,9.3,43,0.00,,,0.00,WUHU216HW,2013-01-31 21:28:00,
2013-01-31 16:34:00,28.2,7.9,29.86,WSW,248,6.2,7.3,42,0.00,,,0.00,WUHU216HW,2013-01-31 21:34:00,
2013-01-31 16:41:00,27.5,7.3,29.86,South,180,6.0,7.8,42,0.00,,,0.00,WUHU216HW,2013-01-31 21:41:00,
2013-01-31 16:47:00,26.9,7.8,29.86,SSW,203,5.3,7.8,44,0.00,,,0.00,WUHU216HW,2013-01-31 21:47:00,
2013-01-31 16:53:00,26.2,7.6,29.86,WNW,293,4.0,5.3,45,0.00,,,0.00,WUHU216HW,2013-01-31 21:53:00,
2013-01-31 16:59:00,26.0,8.4,29.86,SW,225,4.4,9.8,47,0.00,,,0.00,WUHU216HW,2013-01-31 21:59:00,
2013-01-31 17:05:00,26.0,9.9,29.87,SW,225,1.3,6.4,50,0.00,,,0.00,WUHU216HW,2013-01-31 22:05:00,
2013-01-31 17:12:00,25.8,10.1,29.87,SW,225,0.0,7.6,51,0.00,,,0.00,WUHU216HW,2013-01-31 22:12:00,
2013-01-31 17:18:00,25.7,10.4,29.87,WSW,248,0.6,7.6,52,0.00,,,0.00,WUHU216HW,2013-01-31 22:18:00,
2013-01-31 17:24:00,25.5,10.2,29.87,SW,225,0.0,3.5,52,0.00,,,0.00,WUHU216HW,2013-01-31 22:24:00,
2013-01-31 17:30:00,25.3,10.0,29.87,SW,225,4.2,6.9,52,0.00,,,0.00,WUHU216HW,2013-01-31 22:30:00,
2013-01-31 17:37:00,25.1,9.9,29.86,SW,225,2.9,6.9,52,0.00,,,0.00,WUHU216HW,2013-01-31 22:37:00,
2013-01-31 17:43:00,24.9,9.7,29.86,SSW,203,0.0,3.8,52,0.00,,,0.00,WUHU216HW,2013-01-31 22:43:00,
2013-01-31 17:49:00,24.9,9.7,29.86,West,270,2.2,7.3,52,0.00,,,0.00,WUHU216HW,2013-01-31 22:49:00,
2013-01-31 17:55:00,24.9,9.3,29.86,SW,225,2.4,3.8,51,0.00,,,0.00,WUHU216HW,2013-01-31 22:55:00,
2013-01-31 18:01:00,24.8,9.1,29.86,SW,225,2.0,6.0,51,0.00,,,0.00,WUHU216HW,2013-01-31 23:01:00,
2013-01-31 18:08:00,24.6,9.0,29.86,SW,225,0.0,4.6,51,0.00,,,0.00,WUHU216HW,2013-01-31 23:08:00,
2013-01-31 18:14:00,24.6,8.6,29.87,WSW,248,3.1,4.6,50,0.00,,,0.00,WUHU216HW,2013-01-31 23:14:00,
2013-01-31 18:20:00,24.6,8.6,29.87,WSW,248,0.0,5.5,50,0.00,,,0.00,WUHU216HW,2013-01-31 23:20:00,
2013-01-31 18:26:00,24.6,8.6,29.87,WSW,248,1.3,5.5,50,0.00,,,0.00,WUHU216HW,2013-01-31 23:26:00,
2013-01-31 18:32:00,24.6,8.6,29.87,SSW,203,0.0,7.3,50,0.00,,,0.00,WUHU216HW,2013-01-31 23:32:00,
2013-01-31 18:39:00,24.8,8.7,29.86,SSW,203,0.0,3.8,50,0.00,,,0.00,WUHU216HW,2013-01-31 23:39:00,
2013-01-31 18:45:00,24.6,8.6,29.87,WSW,248,0.0,4.0,50,0.00,,,0.00,WUHU216HW,2013-01-31 23:45:00,
2013-01-31 18:51:00,24.6,8.6,29.87,South,180,2.0,4.2,50,0.00,,,0.00,WUHU216HW,2013-01-31 23:51:00,
2013-01-31 18:57:00,24.6,8.4,29.87,SW,225,0.0,4.2,50,0.00,,,0.00,WUHU216HW,2013-01-31 23:57:00,
2013-01-31 19:04:00,24.6,8.6,29.88,SW,225,0.0,2.9,50,0.00,,,0.00,WUHU216HW,2013-02-01 00:04:00,
2013-01-31 19:10:00,24.4,8.4,29.88,South,180,0.0,1.5,51,0.00,,,0.00,WUHU216HW,2013-02-01 00:10:00,
2013-01-31 19:16:00,24.6,9.0,29.88,WSW,248,0.0,1.3,51,0.00,,,0.00,WUHU216HW,2013-02-01 00:16:00,
2013-01-31 19:22:00,24.6,9.0,29.89,South,180,1.3,1.5,51,0.00,,,0.00,WUHU216HW,2013-02-01 00:22:00,
2013-01-31 19:28:00,24.4,8.8,29.89,SSW,203,4.9,4.9,51,0.00,,,0.00,WUHU216HW,2013-02-01 00:28:00,
2013-01-31 19:38:00,24.6,9.0,29.89,SSW,203,0.0,4.9,51,0.00,,,0.00,WUHU216HW,2013-02-01 00:38:00,
2013-01-31 19:43:00,24.6,9.4,29.89,SSE,158,4.9,4.9,52,0.00,,,0.00,WUHU216HW,2013-02-01 00:43:00,
2013-01-31 19:48:00,24.8,9.6,29.89,WSW,248,5.8,5.8,52,0.00,,,0.00,WUHU216HW,2013-02-01 00:48:00,
2013-01-31 19:53:00,24.8,9.8,29.89,WSW,248,4.0,5.8,53,0.00,,,0.00,WUHU216HW,2013-02-01 00:53:00,
2013-01-31 19:58:00,24.8,10.0,29.89,SW,225,2.0,5.3,53,0.00,,,0.00,WUHU216HW,2013-02-01 00:58:00,
2013-01-31 20:03:00,24.4,10.5,29.89,WSW,248,2.4,5.1,55,0.00,,,0.00,WUHU216HW,2013-02-01 01:03:00,
2013-01-31 20:08:00,24.2,10.7,29.89,WSW,248,3.3,5.8,56,0.00,,,0.00,WUHU216HW,2013-02-01 01:08:00,
2013-01-31 20:13:00,23.9,10.7,29.89,West,270,5.1,5.8,57,0.00,,,0.00,WUHU216HW,2013-02-01 01:13:00,
2013-01-31 20:18:00,23.7,11.4,29.89,WSW,248,2.0,5.1,59,0.00,,,0.00,WUHU216HW,2013-02-01 01:18:00,
2013-01-31 20:23:00,23.7,11.8,29.89,WSW,248,0.0,4.0,60,0.00,,,0.00,WUHU216HW,2013-02-01 01:23:00,
2013-01-31 20:28:00,23.3,11.8,29.90,WSW,248,0.0,2.2,61,0.00,,,0.00,WUHU216HW,2013-02-01 01:28:00,
2013-01-31 20:33:00,23.3,12.1,29.89,WSW,248,0.0,2.9,62,0.00,,,0.00,WUHU216HW,2013-02-01 01:33:00,
2013-01-31 20:38:00,23.3,12.1,29.89,WSW,248,0.0,2.9,62,0.00,,,0.00,WUHU216HW,2013-02-01 01:38:00,
2013-01-31 20:43:00,23.3,12.5,29.90,West,270,0.0,1.3,63,0.00,,,0.00,WUHU216HW,2013-02-01 01:43:00,
2013-01-31 20:48:00,23.1,12.7,29.89,WSW,248,0.0,0.0,64,0.00,,,0.00,WUHU216HW,2013-02-01 01:48:00,
2013-01-31 20:53:00,23.3,12.9,29.89,West,270,0.0,0.0,64,0.00,,,0.00,WUHU216HW,2013-02-01 01:53:00,
2013-01-31 20:58:00,23.3,12.9,29.89,SW,225,0.0,0.0,64,0.00,,,0.00,WUHU216HW,2013-02-01 01:58:00,
2013-01-31 21:03:00,23.1,13.0,29.89,WNW,293,0.0,0.0,65,0.00,,,0.00,WUHU216HW,2013-02-01 02:03:00,
2013-01-31 21:08:00,23.1,13.0,29.90,WNW,293,0.0,0.0,65,0.00,,,0.00,WUHU216HW,2013-02-01 02:08:00,
2013-01-31 21:13:00,23.1,13.6,29.89,WSW,248,0.0,0.0,66,0.00,,,0.00,WUHU216HW,2013-02-01 02:13:00,
2013-01-31 21:18:00,23.3,13.6,29.89,WNW,293,0.0,0.0,66,0.00,,,0.00,WUHU216HW,2013-02-01 02:18:00,
2013-01-31 21:23:00,23.3,13.6,29.89,WSW,248,1.7,3.1,66,0.00,,,0.00,WUHU216HW,2013-02-01 02:23:00,
2013-01-31 21:28:00,23.3,13.9,29.89,West,270,0.0,3.1,67,0.00,,,0.00,WUHU216HW,2013-02-01 02:28:00,
2013-01-31 21:33:00,23.3,13.9,29.89,WNW,293,4.0,4.0,67,0.00,,,0.00,WUHU216HW,2013-02-01 02:33:00,
2013-01-31 21:38:00,23.5,13.9,29.89,West,270,0.0,4.0,67,0.00,,,0.00,WUHU216HW,2013-02-01 02:38:00,
2013-01-31 21:43:00,23.5,14.4,29.89,West,270,0.0,0.0,68,0.00,,,0.00,WUHU216HW,2013-02-01 02:43:00,
2013-01-31 21:48:00,23.5,14.4,29.89,West,270,0.0,1.3,68,0.00,,,0.00,WUHU216HW,2013-02-01 02:48:00,
2013-01-31 21:53:00,23.5,14.4,29.89,West,270,0.0,1.3,68,0.00,,,0.00,WUHU216HW,2013-02-01 02:53:00,
2013-01-31 21:58:00,23.5,14.8,29.90,WNW,293,0.0,0.0,69,0.00,,,0.00,WUHU216HW,2013-02-01 02:58:00,
2013-01-31 22:03:00,23.3,14.6,29.90,SW,225,0.0,0.0,69,0.00,,,0.00,WUHU216HW,2013-02-01 03:03:00,
2013-01-31 22:08:00,23.0,14.3,29.90,NNW,338,0.0,0.0,69,0.00,,,0.00,WUHU216HW,2013-02-01 03:08:00,
2013-01-31 22:13:00,22.6,14.0,29.89,West,270,0.0,0.0,69,0.00,,,0.00,WUHU216HW,2013-02-01 03:13:00,
2013-01-31 22:18:00,22.2,14.0,29.90,West,270,0.0,0.0,69,0.00,,,0.00,WUHU216HW,2013-02-01 03:18:00,
2013-01-31 22:23:00,21.9,13.6,29.89,WNW,293,0.0,0.0,70,0.00,,,0.00,WUHU216HW,2013-02-01 03:23:00,
2013-01-31 22:28:00,21.5,13.2,29.89,WNW,293,0.0,0.0,70,0.00,,,0.00,WUHU216HW,2013-02-01 03:28:00,
2013-01-31 22:33:00,21.3,13.1,29.89,West,270,0.0,0.0,70,0.00,,,0.00,WUHU216HW,2013-02-01 03:33:00,
2013-01-31 22:38:00,21.0,12.7,29.89,West,270,0.0,0.0,70,0.00,,,0.00,WUHU216HW,2013-02-01 03:38:00,
2013-01-31 22:43:00,20.8,12.5,29.89,West,270,0.0,0.0,70,0.00,,,0.00,WUHU216HW,2013-02-01 03:43:00,
2013-01-31 22:48:00,20.6,12.3,29.89,West,270,0.0,0.0,70,0.00,,,0.00,WUHU216HW,2013-02-01 03:48:00,
2013-01-31 22:53:00,20.6,12.3,29.88,WSW,248,0.0,0.0,70,0.00,,,0.00,WUHU216HW,2013-02-01 03:53:00,
2013-01-31 22:58:00,20.4,12.2,29.89,West,270,0.0,0.0,70,0.00,,,0.00,WUHU216HW,2013-02-01 03:58:00,
2013-01-31 23:03:00,20.4,12.2,29.89,West,270,0.0,0.0,70,0.00,,,0.00,WUHU216HW,2013-02-01 04:03:00,
2013-01-31 23:08:00,20.6,12.3,29.89,West,270,0.0,0.0,70,0.00,,,0.00,WUHU216HW,2013-02-01 04:08:00,
2013-01-31 23:13:00,20.4,12.2,29.89,West,270,0.0,0.0,70,0.00,,,0.00,WUHU216HW,2013-02-01 04:13:00,
2013-01-31 23:18:00,20.4,12.2,29.89,West,270,0.0,0.0,70,0.00,,,0.00,WUHU216HW,2013-02-01 04:18:00,
2013-01-31 23:23:00,20.6,12.3,29.89,WSW,248,0.0,0.0,70,0.00,,,0.00,WUHU216HW,2013-02-01 04:23:00,
2013-01-31 23:28:00,20.6,12.3,29.89,West,270,0.0,0.0,70,0.00,,,0.00,WUHU216HW,2013-02-01 04:28:00,
2013-01-31 23:33:00,20.6,12.3,29.90,West,270,0.0,0.0,70,0.00,,,0.00,WUHU216HW,2013-02-01 04:33:00,
2013-01-31 23:38:00,20.4,11.8,29.90,West,270,0.0,0.0,69,0.00,,,0.00,WUHU216HW,2013-02-01 04:38:00,
2013-01-31 23:44:00,20.3,11.6,29.90,WNW,293,0.0,0.0,69,0.00,,,0.00,WUHU216HW,2013-02-01 04:44:00,
2013-01-31 23:50:00,20.1,11.4,29.90,WNW,293,0.0,0.0,69,0.00,,,0.00,WUHU216HW,2013-02-01 04:50:00,
2013-01-31 23:56:00,19.9,11.3,29.91,West,270,0.0,0.0,69,0.00,,,0.00,WUHU216HW,2013-02-01 04:56:00,